Back to catalog

ATLAS 5 CENTAUR DEB

AliveHEO
NORAD 46667·DEBRIS·🇺🇸 United States

Launched Oct 17, 2018 from Cape Canaveral Space Force Station

Loading…

Next Passes (next 24 hours)

TLE

AgingSource: Space-Track

Epoch: Aug 26, 2026, 20:56 UTC

1 46667U 18079CV  26238.87255932 -.00000123  00000-0  00000+0 0  9992
2 46667  13.5687 358.4415 4526556  30.4399 349.3398  1.95380933 41951

Track ATLAS 5 CENTAUR DEB in real time with AllMySat

Download on the App Store